Langdon, ND

5:23 AM CST on January 23, 2017 (GMT -0600)
Langdon

Weather History for KD55 - April, 2014

Change the Weather History Date:

Wednesday, April 16, 2014

  Actual Average (KDVL) Record (KDVL)
Temperature  
Mean Temperature 28 °F -  
Max Temperature 35 °F 54 °F 77 °F (1988)
Min Temperature 21 °F 31 °F 10 °F (1953)
Degree Days  
Heating Degree Days 37    
Moisture  
Dew Point 11 °F    
Average Humidity 52    
Maximum Humidity 69    
Minimum Humidity 30    
Precipitation  
Precipitation 0.00 in - - ()
Sea Level Pressure  
Sea Level Pressure 30.14 in    
Wind  
Wind Speed 16 mph (NE)    
Max Wind Speed 23 mph    
Max Gust Speed 30 mph    
Visibility 10 miles    
Events      
Averages and records for this station are not official NWS values.
T = Trace of Precipitation, MM = Missing Value Source: NWS Daily Summary

Daily Weather History Graph

Daily Weather History Graph

Search for Another Location

Airport or City:

Trip Planner

Search our weather history database for the weather conditions in past years. The results will help you decide how hot, cold, wet, or windy it might be!

Date:

Astronomy

Apr. 16, 2014 Rise Set
Actual Time 6:40 AM CDT 8:26 PM CDT
Civil Twilight 6:07 AM CDT 9:00 PM CDT
Nautical Twilight 5:26 AM CDT 9:41 PM CDT
Astronomical Twilight 4:41 AM CDT 10:26 PM CDT
Moon 10:19 PM CDT (4/16) 7:23 AM CDT (4/16)
Length of Visible Light 14h 52m
Length of Day
13h 45m
Full, 98% of the Moon is Illuminated
Apr 16
Full
Apr 22
Last Quarter
Apr 29
New
May 6
First Quarter
May 14
Full

Hourly Weather History & Observations

Time (CDT) Temp. Windchill Dew Point Humidity Pressure Visibility Wind Dir Wind Speed Gust Speed Precip Events Conditions
12:15 AM 24.8 °F 11.5 °F 15.8 °F 69% 29.98 in 10.0 mi East 17.3 mph - N/A   Overcast
12:35 AM 24.8 °F 12.4 °F 15.8 °F 69% 29.98 in 10.0 mi East 15.0 mph 20.7 mph N/A   Overcast
12:55 AM 24.8 °F 11.9 °F 14.0 °F 64% 29.98 in 10.0 mi East 16.1 mph 20.7 mph N/A   Overcast
1:15 AM 24.8 °F 12.4 °F 14.0 °F 64% 29.98 in 10.0 mi East 15.0 mph 21.9 mph N/A   Overcast
1:35 AM 24.8 °F 11.9 °F 14.0 °F 64% 29.99 in 10.0 mi East 16.1 mph - N/A   Overcast
1:55 AM 24.8 °F 11.5 °F 14.0 °F 64% 29.99 in 10.0 mi East 17.3 mph - N/A   Overcast
2:15 AM 24.8 °F 13.4 °F 14.0 °F 64% 30.00 in 10.0 mi East 12.7 mph 21.9 mph N/A   Overcast
2:35 AM 24.8 °F 12.4 °F 14.0 °F 64% 30.00 in 10.0 mi ENE 15.0 mph - N/A   Overcast
2:55 AM 24.8 °F 11.9 °F 14.0 °F 64% 30.00 in 10.0 mi East 16.1 mph - N/A   Overcast
3:15 AM 24.8 °F 11.9 °F 14.0 °F 64% 30.01 in 10.0 mi ENE 16.1 mph - N/A   Overcast
3:35 AM 24.8 °F 14.0 °F 14.0 °F 64% 30.01 in 10.0 mi ENE 11.5 mph - N/A   Overcast
3:55 AM 24.8 °F 12.9 °F 14.0 °F 64% 30.02 in 10.0 mi ENE 13.8 mph - N/A   Overcast
4:15 AM 24.8 °F 12.9 °F 12.2 °F 59% 30.02 in 10.0 mi ENE 13.8 mph 23.0 mph N/A   Overcast
4:35 AM 24.8 °F 11.9 °F 14.0 °F 64% 30.02 in 10.0 mi ENE 16.1 mph - N/A   Overcast
4:55 AM 23.0 °F 11.1 °F 12.2 °F 63% 30.03 in 10.0 mi ENE 12.7 mph - N/A   Overcast
5:15 AM 23.0 °F 11.1 °F 14.0 °F 68% 30.04 in 10.0 mi ENE 12.7 mph 20.7 mph N/A   Overcast
5:35 AM 23.0 °F 10.1 °F 14.0 °F 68% 30.04 in 10.0 mi ENE 15.0 mph - N/A   Overcast
5:55 AM 23.0 °F 11.1 °F 12.2 °F 63% 30.04 in 10.0 mi ENE 12.7 mph 21.9 mph N/A   Overcast
6:15 AM 23.0 °F 10.6 °F 12.2 °F 63% 30.05 in 10.0 mi ENE 13.8 mph - N/A   Overcast
6:35 AM 23.0 °F 10.1 °F 12.2 °F 63% 30.05 in 10.0 mi ENE 15.0 mph - N/A   Overcast
6:55 AM 21.2 °F 8.3 °F 12.2 °F 68% 30.06 in 10.0 mi ENE 13.8 mph - N/A   Overcast
7:15 AM 21.2 °F 8.3 °F 10.4 °F 63% 30.07 in 10.0 mi ENE 13.8 mph - N/A   Overcast
7:35 AM 21.2 °F 7.3 °F 10.4 °F 63% 30.08 in 10.0 mi ENE 16.1 mph 19.6 mph N/A   Overcast
7:55 AM 23.0 °F 10.6 °F 10.4 °F 59% 30.09 in 10.0 mi ENE 13.8 mph - N/A   Overcast
8:15 AM 23.0 °F 10.6 °F 8.6 °F 54% 30.10 in 10.0 mi ENE 13.8 mph 21.9 mph N/A   Overcast
8:35 AM 24.8 °F 11.5 °F 8.6 °F 50% 30.11 in 10.0 mi ENE 17.3 mph 25.3 mph N/A   Mostly Cloudy
8:55 AM 26.6 °F 13.1 °F 8.6 °F 47% 30.11 in 10.0 mi ENE 19.6 mph 24.2 mph N/A   Partly Cloudy
9:15 AM 26.6 °F 13.1 °F 8.6 °F 47% 30.11 in 10.0 mi ENE 19.6 mph 24.2 mph N/A   Mostly Cloudy
9:35 AM 28.4 °F 15.4 °F 8.6 °F 43% 30.12 in 10.0 mi ENE 19.6 mph 25.3 mph N/A   Scattered Clouds
9:55 AM 28.4 °F 15.4 °F 8.6 °F 43% 30.12 in 10.0 mi East 19.6 mph 24.2 mph N/A   Clear
10:15 AM 30.2 °F 18.1 °F 6.8 °F 37% 30.12 in 10.0 mi ENE 18.4 mph 24.2 mph N/A   Clear
10:35 AM 32.0 °F 20.8 °F 8.6 °F 38% 30.12 in 10.0 mi NE 17.3 mph 24.2 mph N/A   Clear
10:55 AM 32.0 °F 20.1 °F 6.8 °F 35% 30.13 in 10.0 mi ENE 19.6 mph 24.2 mph N/A   Clear
11:15 AM 32.0 °F 20.8 °F 8.6 °F 38% 30.13 in 10.0 mi ENE 17.3 mph 23.0 mph N/A   Clear
11:35 AM 32.0 °F 21.2 °F 8.6 °F 38% 30.14 in 10.0 mi ENE 16.1 mph 23.0 mph N/A   Clear
11:55 AM 32.0 °F 19.8 °F 6.8 °F 35% 30.15 in 10.0 mi ENE 20.7 mph 24.2 mph N/A   Clear
12:15 PM 32.0 °F 19.8 °F 6.8 °F 35% 30.15 in 10.0 mi ENE 20.7 mph 26.5 mph N/A   Clear
12:35 PM 32.0 °F 20.1 °F 6.8 °F 35% 30.15 in 10.0 mi ENE 19.6 mph 24.2 mph N/A   Clear
12:55 PM 33.8 °F 22.8 °F 5.0 °F 30% 30.16 in 10.0 mi ENE 18.4 mph 25.3 mph N/A   Clear
1:15 PM 35.6 °F 24.8 °F 6.8 °F 30% 30.16 in 10.0 mi NE 19.6 mph 25.3 mph N/A   Clear
1:35 PM 35.6 °F 25.9 °F 6.8 °F 30% 30.17 in 10.0 mi ENE 16.1 mph 27.6 mph N/A   Clear
1:55 PM 33.8 °F 22.8 °F 6.8 °F 32% 30.17 in 10.0 mi ENE 18.4 mph 27.6 mph N/A   Clear
2:15 PM 35.6 °F 25.2 °F 6.8 °F 30% 30.18 in 10.0 mi NE 18.4 mph 27.6 mph N/A   Clear
2:35 PM 35.6 °F 25.9 °F 8.6 °F 33% 30.18 in 10.0 mi ENE 16.1 mph 25.3 mph N/A   Clear
2:55 PM 35.6 °F 26.2 °F 8.6 °F 33% 30.18 in 10.0 mi NNE 15.0 mph 25.3 mph N/A   Clear
3:15 PM 35.6 °F 25.5 °F 10.4 °F 35% 30.19 in 10.0 mi NNE 17.3 mph 26.5 mph N/A   Clear
3:35 PM 33.8 °F 22.2 °F 10.4 °F 38% 30.19 in 10.0 mi NE 20.7 mph 29.9 mph N/A   Clear
3:55 PM 33.8 °F 22.5 °F 10.4 °F 38% 30.20 in 10.0 mi ENE 19.6 mph 26.5 mph N/A   Clear
4:15 PM 33.8 °F 22.5 °F 10.4 °F 38% 30.20 in 10.0 mi ENE 19.6 mph 26.5 mph N/A   Clear
4:35 PM 33.8 °F 21.6 °F 10.4 °F 38% 30.21 in 10.0 mi NE 23.0 mph 27.6 mph N/A   Clear
4:55 PM 33.8 °F 23.2 °F 10.4 °F 38% 30.21 in 10.0 mi NE 17.3 mph 27.6 mph N/A   Clear
5:15 PM 33.8 °F 24.3 °F 10.4 °F 38% 30.22 in 10.0 mi NE 13.8 mph 24.2 mph N/A   Clear
5:35 PM 32.0 °F 20.5 °F 10.4 °F 41% 30.23 in 10.0 mi NE 18.4 mph 25.3 mph N/A   Clear
5:55 PM 32.0 °F 20.5 °F 8.6 °F 38% 30.23 in 10.0 mi NE 18.4 mph - N/A   Clear
6:35 PM 32.0 °F 20.5 °F 14.0 °F 48% 30.24 in 10.0 mi NE 18.4 mph 21.9 mph N/A   Clear
6:55 PM 30.2 °F 18.1 °F 14.0 °F 51% 30.24 in 10.0 mi NNE 18.4 mph - N/A   Clear
7:15 PM 30.2 °F 19.8 °F 14.0 °F 51% 30.25 in 10.0 mi NE 13.8 mph - N/A   Clear
7:35 PM 28.4 °F 16.6 °F 14.0 °F 55% 30.26 in 10.0 mi NNE 16.1 mph - N/A   Clear
7:55 PM 28.4 °F 17.0 °F 14.0 °F 55% 30.26 in 10.0 mi NE 15.0 mph - N/A   Clear
8:15 PM 26.6 °F 15.2 °F 14.0 °F 59% 30.26 in 10.0 mi NE 13.8 mph - N/A   Clear
8:35 PM 26.6 °F 16.2 °F 14.0 °F 59% 30.27 in 10.0 mi NNE 11.5 mph - N/A   Clear
8:55 PM 24.8 °F 13.4 °F 14.0 °F 64% 30.28 in 10.0 mi NNE 12.7 mph 17.3 mph N/A   Clear
9:15 PM 24.8 °F 14.0 °F 14.0 °F 64% 30.29 in 10.0 mi NNE 11.5 mph - N/A   Clear
9:35 PM 24.8 °F 14.6 °F 14.0 °F 64% 30.29 in 10.0 mi NNE 10.4 mph - N/A   Clear
9:55 PM 23.0 °F 12.4 °F 14.0 °F 68% 30.30 in 10.0 mi NNE 10.4 mph - N/A   Clear
10:15 PM 23.0 °F 11.7 °F 14.0 °F 68% 30.30 in 10.0 mi NNE 11.5 mph - N/A   Clear
10:35 PM 23.0 °F 12.4 °F 14.0 °F 68% 30.30 in 10.0 mi NNE 10.4 mph - N/A   Clear
10:55 PM 23.0 °F 12.4 °F 14.0 °F 68% 30.30 in 10.0 mi NNE 10.4 mph - N/A   Clear
11:15 PM 23.0 °F 12.4 °F 14.0 °F 68% 30.30 in 10.0 mi NNE 10.4 mph - N/A   Clear
11:35 PM 23.0 °F 12.4 °F 14.0 °F 68% 30.30 in 10.0 mi NNE 10.4 mph - N/A   Clear
11:55 PM 23.0 °F 12.4 °F 14.0 °F 68% 30.30 in 10.0 mi NNE 10.4 mph - N/A   Clear